Miscellaneous Local Product
Issued by NWS Hastings, NE

Home | Current Version | Previous Version | Text Only | Print | Product List | Glossary Off
Versions: 1 2 3 4 5 6 7 8 9 10 11 12 13 14 15 16 17 18 19 20 21 22 23 24 25 26 27 28 29 30 31 32 33 34 35 36 37 38 39 40 41 42 43 44 45 46 47 48 49 50

000
AXUS43 KGID 281602
MISGRI

GID CWA HOURLY WEATHER ROUNDUP
NATIONAL WEATHER SERVICE HASTINGS NE
1100 AM CDT TUE JUL 28 2015

NOTE: "FAIR" INDICATES FEW OR NO CLOUDS BELOW 12,000 FEET WITH NO
SIGNIFICANT WEATHER AND/OR OBSTRUCTIONS TO VISIBILITY.

...SOUTH CENTRAL NEBRASKA...

CITY           SKY/WX    TMP DP  RH WIND       PRES   REMARKS
GRAND ISLAND   TSTM      74  68  81 NW17G25   29.89R
HASTINGS       CLOUDY    78  68  71 N20G25    29.88R
KEARNEY        PTSUNNY   75  57  53 N30G36    29.92R
ORD            MOSUNNY   75  56  51 N21G29    29.93R
YORK           MOSUNNY   84  73  70 SW6       29.85R HX  91
AURORA         CLOUDY    80  75  84 N16G22    29.87R
LEXINGTON      MOSUNNY   74  51  44 N21G28    29.97R
HOLDREGE       PTSUNNY   72  58  62 N21G32    29.92R
HEBRON         SUNNY     86  67  52 SW12      29.83R

...NEBRASKA PANHANDLE...

CITY           SKY/WX    TMP DP  RH WIND       PRES   REMARKS
CHADRON        SUNNY     68  46  45 W14G21    30.07S
ALLIANCE       SUNNY     70  41  34 NW17G23   30.07S
SCOTTSBLUFF    SUNNY     71  43  36 NW13      30.09S
SIDNEY         SUNNY     73  32  22 NW25G33   30.11S

...WESTERN AND NORTH CENTRAL NEBRASKA...

CITY           SKY/WX    TMP DP  RH WIND       PRES   REMARKS
VALENTINE      SUNNY     73  47  39 NW16G28   30.00R
AINSWORTH      SUNNY     72  48  42 N16G24    30.01R
ONEILL         SUNNY     72  57  59 NW21      29.96R
BROKEN BOW     SUNNY     74  50  42 N18G30    29.98R
IMPERIAL       SUNNY     78  42  27 N21       30.04R
NORTH PLATTE   SUNNY     76  53  44 N15G25    30.01R
MCCOOK         SUNNY     79  50  36 N18       29.99R

...EASTERN NEBRASKA...

CITY           SKY/WX    TMP DP  RH WIND       PRES   REMARKS
NORFOLK        PTSUNNY   78  73  84 SW5       29.87R
SO SIOUX CITY  PTSUNNY   74  69  85 SE7       29.84R
TEKAMAH        CLOUDY    77  72  84 SE14G21   29.84R
COLUMBUS       PTSUNNY   75  70  83 S7        29.87R
ALBION         CLOUDY    71  65  82 NW10G16   29.94R
OMAHA EPPLEY   PTSUNNY   79  71  76 SE16G24   29.85F
OFFUTT AFB     PTSUNNY   80  73  80 E13       29.85F
MILLARD        MOSUNNY   78  73  84 E8        29.85F
LINCOLN        SUNNY     85  74  69 E9        29.85S HX  92
NEBRASKA CITY  MOSUNNY   82  73  75 E10       29.87F
BEATRICE       SUNNY     86  71  62 S5        29.85F HX  91
FALLS CITY     SUNNY     88  74  63 SW6       29.87R HX  96

...NORTHERN KANSAS...

CITY           SKY/WX    TMP DP  RH WIND       PRES   REMARKS
GOODLAND       SUNNY     77  43  29 N22G33    30.05R
HILL CITY      SUNNY     84  65  52 N24G33    29.91R
NORTON         SUNNY     77  52  41 N29G36    29.93R
PHILLIPSBURG   SUNNY     84  66  54 N25G32    29.87R
SMITH CENTER   SUNNY     86  68  54 N6        29.84R
HAYS           SUNNY     88  66  48 W12       29.85R HX  90
RUSSELL        SUNNY     88  68  51 SW16      29.83R HX  91
CONCORDIA      SUNNY     90  69  50 SW10G20   29.83R HX  94
SALINA         SUNNY     94  67  41 S18       29.82S HX  97
TOPEKA         SUNNY     89  72  56 S12       29.88S HX  96



USA.gov is the U.S. government's official web portal to all federal, state and local government web resources and services.